QPF
0.05 0.05 0.05 0.06 0.07 0.08 0.07 0.07 0.07 0.08 0.06 0.06 0.07 0.07 0.08 0.09 0.10 0.09 0.08 0.08 0.08 0.09 0.07 0.05 0.04 0.03 0.03 0.03 0.04 0.04 0.04 0.03 0.03 0.03 0.03 0.02 0.02 0.02 0.01 0.01 0.01 0.01 0.02
0.04 0.04 0.04 0.06 0.11 0.10 0.06 0.07 0.07 0.07 0.06 0.04 0.05 0.04 0.04 0.05 0.06 0.05 0.04 0.04 0.04 0.06 0.07 0.08 0.07 0.05 0.03 0.03 0.02 0.02 0.03 0.04 0.04 0.04 0.04 0.03 0.02 0.01 0.01 0.01 0.00 0.01 0.01
0.02 0.02 0.03 0.05 0.09 0.09 0.06 0.07 0.07 0.07 0.06 0.05 0.04 0.03 0.03 0.04 0.04 0.03 0.03 0.04 0.04 0.05 0.06 0.07 0.07 0.06 0.04 0.03 0.03 0.02 0.03 0.04 0.04 0.04 0.04 0.02 0.02 0.01 0.01 0.01 0.01 0.01 0.01
0.02 0.02 0.03 0.05 0.07 0.09 0.08 0.08 0.08 0.06 0.06 0.05 0.04 0.03 0.04 0.03 0.03 0.03 0.04 0.04 0.05 0.06 0.08 0.09 0.09 0.07 0.05 0.04 0.03 0.03 0.03 0.03 0.03 0.03 0.03 0.02 0.01 0.02 0.01 0.01 0.01 0.00 0.00
0.03 0.03 0.05 0.05 0.06 0.08 0.11 0.12 0.10 0.10 0.10 0.08 0.06 0.07 0.08 0.06 0.05 0.05 0.06 0.06 0.07 0.08 0.10 0.10 0.10 0.10 0.08 0.06 0.04 0.04 0.03 0.02 0.02 0.02 0.02 0.02 0.01 0.01 0.02 0.02 0.01 0.00 0.01
0.03 0.04 0.05 0.06 0.06 0.06 0.10 0.15 0.16 0.12 0.10 0.10 0.09 0.09 0.10 0.10 0.09 0.07 0.06 0.06 0.06 0.06 0.07 0.10 0.10 0.09 0.08 0.05 0.04 0.04 0.03 0.02 0.02 0.01 0.01 0.02 0.02 0.02 0.02 0.02 0.01 0.01 0.02
0.02 0.03 0.03 0.04 0.05 0.06 0.08 0.11 0.11 0.13 0.12 0.10 0.10 0.10 0.09 0.09 0.09 0.07 0.06 0.05 0.04 0.05 0.05 0.05 0.08 0.09 0.07 0.05 0.04 0.03 0.02 0.02 0.02 0.01 0.01 0.01 0.02 0.02 0.02 0.03 0.02 0.01 0.02
0.02 0.01 0.02 0.03 0.05 0.07 0.09 0.10 0.11 0.11 0.13 0.11 0.11 0.12 0.09 0.07 0.07 0.06 0.05 0.05 0.05 0.05 0.06 0.05 0.05 0.07 0.08 0.06 0.04 0.03 0.03 0.02 0.02 0.01 0.01 0.01 0.01 0.01 0.01 0.01 0.02 0.02 0.01
0.01 0.02 0.03 0.04 0.04 0.05 0.07 0.10 0.11 0.11 0.13 0.12 0.10 0.10 0.07 0.05 0.05 0.06 0.07 0.07 0.06 0.07 0.07 0.07 0.05 0.05 0.07 0.07 0.06 0.04 0.03 0.03 0.02 0.01 0.01 0.00 0.01 0.01 0.00 0.01 0.01 0.01 0.01
0.01 0.03 0.04 0.04 0.04 0.03 0.04 0.08 0.10 0.11 0.12 0.13 0.08 0.07 0.07 0.06 0.05 0.05 0.07 0.07 0.06 0.05 0.06 0.09 0.06 0.04 0.03 0.04 0.05 0.04 0.03 0.02 0.02 0.02 0.01 0.01 0.01 0.01 0.01 0.01 0.01 0.01 0.02
0.02 0.03 0.04 0.04 0.04 0.04 0.04 0.06 0.09 0.10 0.11 0.09 0.05 0.04 0.04 0.04 0.04 0.04 0.04 0.04 0.04 0.03 0.03 0.04 0.04 0.02 0.02 0.03 0.03 0.02 0.02 0.01 0.01 0.01 0.01 0.01 0.01 0.01 0.01 0.01 0.01 0.01 0.02
0.02 0.03 0.04 0.03 0.03 0.04 0.04 0.05 0.08 0.08 0.09 0.07 0.04 0.03 0.03 0.02 0.02 0.03 0.04 0.04 0.04 0.03 0.03 0.03 0.03 0.02 0.01 0.02 0.02 0.02 0.01 0.01 0.01 0.01 0.01 0.01 0.02 0.01 0.01 0.01 0.01 0.01 0.01
0.02 0.03 0.03 0.03 0.03 0.03 0.04 0.03 0.07 0.07 0.07 0.05 0.03 0.02 0.02 0.02 0.02 0.03 0.03 0.03 0.04 0.04 0.04 0.03 0.03 0.02 0.01 0.02 0.02 0.01 0.01 0.01 0.01 0.01 0.01 0.02 0.02 0.01 0.01 0.01 0.01 0.01 0.01
0.02 0.02 0.03 0.03 0.03 0.02 0.02 0.04 0.09 0.09 0.06 0.05 0.02 0.01 0.02 0.02 0.01 0.01 0.03 0.03 0.04 0.04 0.05 0.04 0.04 0.03 0.02 0.02 0.02 0.02 0.01 0.00 0.00 0.01 0.01 0.02 0.01 0.01 0.01 0.01 0.00 0.00 0.00
0.02 0.02 0.02 0.03 0.03 0.03 0.03 0.05 0.09 0.09 0.05 0.03 0.01 0.01 0.02 0.02 0.02 0.01 0.02 0.03 0.04 0.04 0.04 0.04 0.04 0.03 0.02 0.02 0.02 0.02 0.02 0.01 0.00 0.01 0.01 0.01 0.01 0.01 0.01 0.01 0.00 0.00 0.00
0.02 0.02 0.02 0.04 0.05 0.04 0.05 0.05 0.08 0.10 0.05 0.02 0.01 0.01 0.01 0.01 0.01 0.01 0.02 0.02 0.03 0.03 0.03 0.03 0.03 0.04 0.03 0.02 0.01 0.01 0.01 0.01 0.01 0.01 0.01 0.01 0.01 0.01 0.01 0.01 0.01 0.01 0.01
0.02 0.02 0.02 0.04 0.06 0.05 0.04 0.04 0.07 0.08 0.03 0.01 0.01 0.01 0.01 0.01 0.02 0.02 0.02 0.01 0.02 0.02 0.02 0.02 0.03 0.03 0.03 0.02 0.02 0.01 0.01 0.01 0.01 0.01 0.01 0.01 0.01 0.02 0.02 0.02 0.02 0.02 0.02
0.02 0.02 0.02 0.03 0.03 0.04 0.04 0.05 0.07 0.05 0.02 0.01 0.01 0.01 0.01 0.02 0.02 0.01 0.01 0.01 0.01 0.02 0.02 0.03 0.03 0.03 0.02 0.02 0.02 0.01 0.01 0.01 0.01 0.01 0.01 0.01 0.01 0.01 0.01 0.01 0.01 0.01 0.01
0.03 0.02 0.02 0.03 0.03 0.03 0.04 0.05 0.06 0.04 0.02 0.01 0.01 0.01 0.01 0.01 0.01 0.01 0.01 0.01 0.01 0.02 0.03 0.02 0.02 0.02 0.01 0.02 0.01 0.00 0.00 0.00 0.01 0.01 0.01 0.01 0.01 0.02 0.02 0.01 0.01 0.01 0.01
0.03 0.03 0.03 0.04 0.04 0.04 0.04 0.03 0.04 0.03 0.02 0.02 0.02 0.01 0.01 0.01 0.01 0.01 0.01 0.01 0.02 0.02 0.02 0.03 0.03 0.02 0.01 0.01 0.00 0.00 0.00 0.00 0.00 0.01 0.01 0.01 0.02 0.03 0.02 0.02 0.01 0.01 0.01
0.03 0.03 0.04 0.05 0.05 0.04 0.03 0.02 0.02 0.02 0.02 0.02 0.02 0.01 0.01 0.01 0.01 0.00 0.01 0.01 0.02 0.02 0.01 0.02 0.02 0.02 0.01 0.01 0.01 0.01 0.01 0.01 0.01 0.01 0.01 0.02 0.03 0.03 0.03 0.02 0.01 0.01 0.01
0.03 0.04 0.04 0.05 0.05 0.03 0.02 0.02 0.02 0.01 0.01 0.02 0.02 0.02 0.01 0.01 0.01 0.01 0.01 0.01 0.02 0.02 0.02 0.02 0.02 0.02 0.01 0.02 0.02 0.02 0.02 0.02 0.01 0.01 0.02 0.03 0.04 0.05 0.05 0.03 0.01 0.01 0.01
0.03 0.04 0.03 0.04 0.05 0.04 0.02 0.02 0.02 0.01 0.01 0.01 0.01 0.01 0.01 0.00 0.01 0.01 0.02 0.02 0.02 0.02 0.02 0.02 0.02 0.02 0.02 0.02 0.02 0.02 0.02 0.01 0.01 0.01 0.02 0.03 0.03 0.03 0.03 0.02 0.01 0.01 0.00
0.02 0.03 0.03 0.05 0.05 0.03 0.02 0.02 0.01 0.01 0.01 0.01 0.01 0.01 0.01 0.01 0.01 0.02 0.02 0.01 0.01 0.02 0.02 0.02 0.02 0.02 0.01 0.01 0.01 0.01 0.01 0.01 0.00 0.01 0.02 0.02 0.02 0.02 0.02 0.02 0.01 0.01 0.00
0.02 0.02 0.02 0.03 0.03 0.02 0.01 0.02 0.02 0.02 0.01 0.00 0.01 0.01 0.01 0.01 0.01 0.01 0.01 0.01 0.01 0.02 0.02 0.02 0.02 0.01 0.01 0.01 0.01 0.01 0.01 0.00 0.00 0.01 0.01 0.01 0.02 0.02 0.02 0.02 0.01 0.01 0.01
0.01 0.01 0.01 0.02 0.02 0.01 0.02 0.02 0.02 0.02 0.01 0.00 0.01 0.01 0.01 0.01 0.00 0.00 0.01 0.01 0.01 0.02 0.03 0.03 0.02 0.01 0.01 0.01 0.01 0.00 0.00 0.01 0.01 0.01 0.01 0.01 0.01 0.02 0.02 0.02 0.02 0.02 0.02
MSLP
1015.01 1014.78 1014.51 1014.15 1013.69 1013.14 1012.52 1011.87 1011.23 1010.63 1010.09 1009.61 1009.17 1008.76 1008.36 1007.96 1007.56 1007.18 1006.84 1006.56 1006.38 1006.30 1006.33 1006.44 1006.63 1006.85 1007.07 1007.29 1007.47 1007.61 1007.70 1007.75 1007.76 1007.74 1007.68 1007.60 1007.50 1007.37 1007.22 1007.06 1006.91 1006.77 1006.66
1015.45 1015.23 1014.95 1014.59 1014.11 1013.55 1012.92 1012.28 1011.66 1011.11 1010.62 1010.19 1009.79 1009.40 1008.99 1008.54 1008.07 1007.59 1007.15 1006.78 1006.51 1006.36 1006.35 1006.45 1006.64 1006.87 1007.12 1007.34 1007.51 1007.64 1007.71 1007.73 1007.72 1007.68 1007.63 1007.55 1007.44 1007.31 1007.15 1006.98 1006.79 1006.61 1006.45
1015.74 1015.55 1015.31 1014.96 1014.50 1013.93 1013.30 1012.67 1012.07 1011.55 1011.11 1010.74 1010.39 1010.03 1009.63 1009.18 1008.67 1008.13 1007.62 1007.18 1006.84 1006.65 1006.60 1006.68 1006.85 1007.08 1007.31 1007.52 1007.67 1007.78 1007.82 1007.83 1007.80 1007.76 1007.71 1007.64 1007.55 1007.43 1007.28 1007.09 1006.88 1006.66 1006.45
1015.95 1015.84 1015.65 1015.34 1014.88 1014.31 1013.68 1013.03 1012.44 1011.93 1011.51 1011.17 1010.86 1010.54 1010.17 1009.73 1009.22 1008.68 1008.14 1007.66 1007.30 1007.07 1006.98 1007.03 1007.18 1007.38 1007.58 1007.76 1007.89 1007.97 1007.99 1007.98 1007.96 1007.92 1007.89 1007.84 1007.78 1007.68 1007.55 1007.36 1007.14 1006.89 1006.64
1016.18 1016.15 1016.02 1015.74 1015.29 1014.71 1014.05 1013.37 1012.74 1012.21 1011.78 1011.43 1011.14 1010.85 1010.51 1010.11 1009.63 1009.11 1008.59 1008.12 1007.75 1007.50 1007.39 1007.41 1007.52 1007.68 1007.84 1007.98 1008.08 1008.13 1008.14 1008.13 1008.11 1008.10 1008.10 1008.08 1008.05 1007.99 1007.88 1007.71 1007.49 1007.23 1006.95
1016.45 1016.50 1016.43 1016.18 1015.73 1015.12 1014.41 1013.67 1012.97 1012.38 1011.89 1011.52 1011.21 1010.93 1010.62 1010.25 1009.83 1009.36 1008.88 1008.45 1008.10 1007.85 1007.73 1007.71 1007.78 1007.89 1008.01 1008.11 1008.18 1008.21 1008.22 1008.21 1008.21 1008.23 1008.26 1008.28 1008.29 1008.26 1008.18 1008.03 1007.83 1007.58 1007.30
1016.77 1016.89 1016.86 1016.62 1016.16 1015.51 1014.74 1013.92 1013.14 1012.46 1011.89 1011.45 1011.11 1010.81 1010.51 1010.18 1009.81 1009.41 1008.99 1008.61 1008.29 1008.06 1007.93 1007.89 1007.92 1007.98 1008.06 1008.12 1008.16 1008.18 1008.18 1008.20 1008.22 1008.27 1008.33 1008.39 1008.44 1008.44 1008.39 1008.27 1008.10 1007.88 1007.62
1017.10 1017.26 1017.25 1017.02 1016.55 1015.86 1015.03 1014.14 1013.27 1012.48 1011.83 1011.31 1010.90 1010.56 1010.26 1009.96 1009.63 1009.29 1008.94 1008.61 1008.34 1008.13 1008.00 1007.94 1007.93 1007.95 1007.99 1008.02 1008.04 1008.05 1008.07 1008.10 1008.15 1008.23 1008.32 1008.41 1008.47 1008.50 1008.48 1008.39 1008.25 1008.07 1007.85
1017.38 1017.55 1017.55 1017.32 1016.84 1016.13 1015.27 1014.31 1013.37 1012.50 1011.76 1011.15 1010.67 1010.29 1009.96 1009.66 1009.37 1009.07 1008.79 1008.51 1008.28 1008.10 1007.97 1007.90 1007.87 1007.86 1007.86 1007.87 1007.88 1007.89 1007.92 1007.97 1008.05 1008.14 1008.25 1008.35 1008.43 1008.47 1008.46 1008.39 1008.28 1008.14 1007.96
1017.57 1017.73 1017.73 1017.50 1017.01 1016.31 1015.43 1014.45 1013.47 1012.55 1011.73 1011.05 1010.50 1010.07 1009.71 1009.40 1009.12 1008.86 1008.62 1008.39 1008.20 1008.05 1007.94 1007.86 1007.81 1007.78 1007.77 1007.76 1007.76 1007.78 1007.82 1007.88 1007.97 1008.08 1008.19 1008.28 1008.35 1008.39 1008.37 1008.31 1008.22 1008.10 1007.97
1017.65 1017.79 1017.76 1017.53 1017.06 1016.37 1015.51 1014.55 1013.57 1012.63 1011.78 1011.05 1010.45 1009.96 1009.56 1009.24 1008.96 1008.72 1008.51 1008.33 1008.18 1008.06 1007.96 1007.89 1007.84 1007.80 1007.78 1007.76 1007.76 1007.78 1007.82 1007.89 1007.98 1008.08 1008.17 1008.25 1008.29 1008.30 1008.26 1008.19 1008.10 1007.99 1007.88
1017.65 1017.74 1017.69 1017.45 1016.99 1016.34 1015.53 1014.62 1013.67 1012.75 1011.89 1011.14 1010.50 1009.97 1009.54 1009.19 1008.92 1008.69 1008.51 1008.37 1008.25 1008.17 1008.10 1008.04 1007.99 1007.95 1007.92 1007.90 1007.89 1007.90 1007.94 1008.00 1008.08 1008.15 1008.22 1008.26 1008.26 1008.22 1008.14 1008.04 1007.93 1007.82 1007.71
1017.62 1017.65 1017.55 1017.29 1016.85 1016.24 1015.48 1014.63 1013.75 1012.86 1012.03 1011.28 1010.63 1010.07 1009.62 1009.25 1008.97 1008.76 1008.61 1008.50 1008.42 1008.37 1008.33 1008.30 1008.26 1008.22 1008.17 1008.13 1008.11 1008.11 1008.13 1008.16 1008.21 1008.26 1008.28 1008.28 1008.23 1008.14 1008.02 1007.87 1007.72 1007.59 1007.47
1017.60 1017.56 1017.40 1017.11 1016.67 1016.08 1015.38 1014.60 1013.78 1012.95 1012.16 1011.42 1010.77 1010.20 1009.74 1009.36 1009.09 1008.89 1008.76 1008.69 1008.65 1008.64 1008.63 1008.61 1008.57 1008.52 1008.46 1008.40 1008.34 1008.31 1008.30 1008.30 1008.31 1008.32 1008.31 1008.26 1008.16 1008.03 1007.85 1007.66 1007.46 1007.28 1007.13
1017.64 1017.51 1017.27 1016.93 1016.47 1015.90 1015.24 1014.51 1013.75 1012.98 1012.22 1011.52 1010.87 1010.31 1009.84 1009.47 1009.20 1009.02 1008.92 1008.88 1008.88 1008.90 1008.91 1008.90 1008.86 1008.79 1008.69 1008.59 1008.50 1008.42 1008.36 1008.32 1008.30 1008.27 1008.22 1008.13 1008.00 1007.82 1007.60 1007.36 1007.12 1006.89 1006.70
1017.71 1017.49 1017.18 1016.77 1016.28 1015.70 1015.06 1014.37 1013.66 1012.93 1012.22 1011.54 1010.91 1010.36 1009.89 1009.53 1009.27 1009.11 1009.04 1009.03 1009.05 1009.09 1009.11 1009.09 1009.03 1008.93 1008.79 1008.64 1008.49 1008.35 1008.24 1008.16 1008.10 1008.04 1007.96 1007.85 1007.69 1007.49 1007.24 1006.96 1006.68 1006.41 1006.17
1017.79 1017.49 1017.10 1016.63 1016.09 1015.50 1014.86 1014.20 1013.51 1012.82 1012.14 1011.48 1010.88 1010.34 1009.88 1009.53 1009.28 1009.14 1009.08 1009.09 1009.13 1009.17 1009.18 1009.15 1009.05 1008.91 1008.71 1008.50 1008.29 1008.09 1007.93 1007.81 1007.72 1007.63 1007.54 1007.42 1007.25 1007.03 1006.76 1006.46 1006.14 1005.83 1005.55
1017.83 1017.46 1017.00 1016.48 1015.90 1015.29 1014.66 1014.00 1013.34 1012.67 1012.02 1011.38 1010.79 1010.26 1009.82 1009.47 1009.24 1009.10 1009.05 1009.06 1009.10 1009.12 1009.12 1009.05 1008.91 1008.71 1008.46 1008.19 1007.91 1007.67 1007.46 1007.31 1007.19 1007.09 1006.99 1006.87 1006.70 1006.48 1006.20 1005.88 1005.54 1005.19 1004.87
1017.78 1017.36 1016.86 1016.31 1015.71 1015.09 1014.45 1013.81 1013.16 1012.52 1011.88 1011.27 1010.69 1010.17 1009.73 1009.39 1009.15 1009.02 1008.96 1008.95 1008.97 1008.98 1008.94 1008.83 1008.65 1008.39 1008.09 1007.76 1007.44 1007.15 1006.91 1006.73 1006.59 1006.49 1006.39 1006.27 1006.11 1005.88 1005.60 1005.27 1004.90 1004.52 1004.16
1017.61 1017.18 1016.66 1016.10 1015.50 1014.88 1014.26 1013.63 1013.00 1012.38 1011.76 1011.15 1010.59 1010.08 1009.64 1009.30 1009.05 1008.90 1008.82 1008.80 1008.79 1008.76 1008.68 1008.53 1008.31 1008.01 1007.67 1007.30 1006.95 1006.63 1006.36 1006.16 1006.01 1005.90 1005.79 1005.67 1005.50 1005.27 1004.98 1004.63 1004.24 1003.83 1003.43
1017.32 1016.90 1016.40 1015.85 1015.26 1014.67 1014.07 1013.46 1012.85 1012.24 1011.64 1011.05 1010.49 1009.98 1009.54 1009.19 1008.93 1008.76 1008.66 1008.61 1008.56 1008.50 1008.39 1008.20 1007.95 1007.62 1007.25 1006.87 1006.49 1006.15 1005.87 1005.66 1005.49 1005.36 1005.24 1005.10 1004.91 1004.67 1004.35 1003.97 1003.55 1003.12 1002.69
1016.96 1016.56 1016.08 1015.56 1015.01 1014.44 1013.86 1013.28 1012.69 1012.09 1011.50 1010.92 1010.36 1009.86 1009.42 1009.06 1008.78 1008.59 1008.46 1008.38 1008.30 1008.21 1008.07 1007.86 1007.58 1007.25 1006.87 1006.47 1006.09 1005.75 1005.45 1005.22 1005.03 1004.87 1004.71 1004.54 1004.32 1004.03 1003.68 1003.28 1002.83 1002.37 1001.92
1016.55 1016.18 1015.73 1015.24 1014.71 1014.17 1013.61 1013.04 1012.47 1011.88 1011.29 1010.71 1010.16 1009.66 1009.22 1008.85 1008.57 1008.36 1008.22 1008.11 1008.01 1007.89 1007.73 1007.50 1007.22 1006.88 1006.50 1006.11 1005.73 1005.37 1005.06 1004.80 1004.58 1004.38 1004.17 1003.94 1003.67 1003.34 1002.95 1002.51 1002.04 1001.56 1001.10
1016.15 1015.78 1015.35 1014.88 1014.37 1013.84 1013.29 1012.72 1012.14 1011.56 1010.97 1010.39 1009.85 1009.35 1008.92 1008.56 1008.27 1008.06 1007.91 1007.78 1007.66 1007.53 1007.35 1007.12 1006.83 1006.49 1006.12 1005.72 1005.34 1004.97 1004.64 1004.34 1004.07 1003.81 1003.55 1003.26 1002.92 1002.54 1002.11 1001.65 1001.16 1000.67 1000.22
1015.75 1015.38 1014.96 1014.48 1013.97 1013.43 1012.87 1012.29 1011.69 1011.09 1010.50 1009.93 1009.40 1008.91 1008.50 1008.15 1007.88 1007.68 1007.52 1007.39 1007.27 1007.12 1006.93 1006.69 1006.39 1006.05 1005.67 1005.27 1004.87 1004.48 1004.12 1003.78 1003.45 1003.14 1002.81 1002.46 1002.07 1001.65 1001.19 1000.71 1000.22 999.75 999.31
1015.37 1014.98 1014.53 1014.03 1013.50 1012.93 1012.33 1011.72 1011.11 1010.49 1009.90 1009.33 1008.81 1008.36 1007.97 1007.66 1007.41 1007.23 1007.08 1006.95 1006.82 1006.66 1006.45 1006.19 1005.88 1005.52 1005.12 1004.70 1004.28 1003.87 1003.47 1003.08 1002.71 1002.34 1001.96 1001.56 1001.14 1000.70 1000.23 999.76 999.29 998.85 998.44
Thickness
5732 5732 5732 5730 5728 5724 5721 5718 5715 5712 5709 5706 5702 5699 5697 5697 5695 5694 5692 5690 5688 5686 5684 5681 5679 5677 5675 5673 5671 5669 5668 5666 5665 5664 5663 5664 5664 5663 5663 5662 5660 5660 5660
5726 5726 5725 5723 5720 5717 5714 5711 5709 5706 5702 5700 5697 5694 5691 5689 5688 5687 5685 5684 5682 5680 5678 5676 5673 5672 5669 5667 5665 5663 5661 5660 5659 5656 5654 5653 5654 5655 5657 5655 5654 5654 5653
5719 5719 5717 5715 5712 5710 5708 5706 5702 5700 5696 5692 5689 5687 5684 5682 5680 5678 5677 5676 5675 5673 5671 5669 5667 5665 5663 5661 5659 5657 5655 5652 5651 5650 5647 5644 5643 5645 5648 5648 5647 5647 5646
5715 5713 5711 5708 5706 5704 5702 5699 5696 5692 5689 5685 5680 5677 5674 5672 5672 5670 5669 5669 5668 5666 5665 5664 5662 5659 5657 5655 5653 5652 5649 5647 5645 5643 5641 5639 5638 5635 5637 5640 5640 5640 5639
5710 5708 5706 5703 5701 5698 5695 5691 5687 5683 5681 5678 5674 5669 5666 5665 5664 5662 5661 5660 5660 5660 5659 5657 5656 5654 5651 5650 5648 5646 5644 5642 5639 5637 5635 5632 5630 5628 5627 5629 5632 5632 5633
5705 5702 5701 5698 5695 5692 5688 5684 5679 5675 5672 5669 5667 5663 5661 5658 5656 5655 5653 5653 5653 5653 5652 5651 5650 5649 5647 5645 5643 5641 5639 5636 5634 5631 5629 5627 5625 5623 5621 5621 5623 5623 5625
5698 5695 5692 5690 5687 5684 5681 5677 5672 5668 5665 5662 5660 5658 5654 5652 5650 5649 5647 5647 5647 5647 5646 5646 5645 5644 5643 5641 5639 5636 5634 5632 5628 5626 5624 5622 5620 5618 5616 5615 5615 5615 5616
5691 5688 5686 5683 5680 5677 5673 5670 5666 5661 5659 5656 5654 5651 5649 5646 5644 5643 5642 5642 5641 5641 5642 5642 5641 5640 5638 5636 5634 5631 5629 5626 5624 5622 5619 5617 5615 5612 5610 5608 5607 5607 5608
5685 5682 5680 5677 5673 5670 5667 5663 5659 5655 5653 5651 5648 5645 5643 5641 5640 5638 5637 5637 5637 5637 5638 5637 5636 5635 5633 5631 5629 5625 5623 5621 5619 5616 5613 5611 5609 5607 5605 5602 5600 5598 5599
5679 5677 5673 5670 5667 5664 5660 5657 5654 5650 5647 5645 5642 5640 5638 5636 5635 5634 5633 5633 5633 5633 5633 5633 5632 5630 5628 5626 5623 5621 5618 5616 5613 5611 5608 5606 5604 5602 5600 5597 5594 5592 5591
5673 5670 5667 5664 5661 5657 5654 5651 5648 5645 5642 5639 5636 5634 5633 5632 5631 5630 5630 5630 5629 5628 5629 5629 5627 5626 5624 5622 5619 5616 5614 5611 5609 5606 5604 5602 5600 5597 5595 5592 5589 5587 5585
5668 5665 5662 5658 5655 5652 5649 5646 5643 5640 5637 5634 5631 5629 5628 5628 5627 5628 5627 5626 5625 5625 5624 5624 5623 5622 5620 5618 5615 5612 5610 5607 5605 5602 5599 5596 5595 5593 5590 5587 5585 5583 5581
5663 5661 5657 5654 5651 5648 5645 5642 5639 5636 5633 5630 5627 5625 5624 5624 5623 5625 5625 5623 5622 5621 5620 5619 5618 5618 5617 5614 5611 5609 5606 5603 5600 5597 5594 5592 5589 5587 5585 5582 5580 5578 5577
5659 5656 5653 5650 5648 5645 5642 5639 5636 5633 5630 5627 5624 5622 5621 5621 5621 5621 5621 5619 5618 5617 5616 5615 5615 5614 5613 5611 5608 5605 5602 5599 5596 5593 5590 5588 5585 5583 5581 5579 5576 5574 5572
5655 5652 5649 5647 5645 5643 5640 5637 5634 5631 5628 5624 5622 5620 5619 5619 5618 5618 5617 5616 5615 5614 5613 5612 5611 5611 5610 5608 5605 5602 5599 5595 5592 5590 5587 5584 5582 5580 5577 5575 5573 5570 5568
5652 5649 5647 5644 5643 5641 5639 5635 5633 5630 5626 5623 5621 5619 5617 5616 5615 5614 5613 5612 5611 5610 5609 5609 5608 5608 5607 5604 5602 5599 5595 5592 5589 5585 5583 5580 5579 5576 5574 5571 5569 5566 5563
5649 5646 5644 5642 5640 5638 5637 5634 5632 5629 5626 5622 5620 5618 5615 5614 5613 5612 5611 5609 5608 5607 5606 5606 5606 5605 5604 5602 5599 5596 5592 5589 5585 5582 5579 5577 5576 5572 5569 5566 5564 5561 5558
5646 5643 5641 5640 5638 5637 5635 5633 5631 5629 5625 5622 5619 5617 5614 5612 5610 5609 5608 5607 5605 5604 5604 5604 5604 5603 5602 5599 5596 5593 5590 5586 5582 5578 5575 5572 5569 5567 5564 5562 5560 5557 5555
5643 5641 5640 5639 5637 5635 5634 5631 5629 5627 5623 5621 5618 5616 5613 5610 5608 5607 5605 5604 5603 5602 5602 5602 5601 5600 5599 5596 5594 5591 5587 5583 5579 5576 5572 5569 5565 5563 5559 5557 5555 5553 5551
5642 5640 5639 5638 5636 5634 5631 5629 5626 5624 5622 5620 5618 5615 5613 5610 5607 5605 5604 5602 5601 5601 5601 5600 5599 5597 5596 5594 5591 5588 5584 5580 5577 5573 5569 5565 5562 5558 5555 5552 5549 5548 5547
5641 5639 5638 5636 5634 5632 5629 5627 5625 5623 5622 5620 5617 5615 5613 5610 5607 5605 5603 5601 5600 5600 5599 5598 5597 5595 5594 5592 5589 5586 5581 5577 5573 5569 5566 5563 5558 5555 5551 5548 5545 5543 5540
5638 5637 5635 5634 5633 5631 5628 5625 5624 5623 5622 5619 5617 5614 5612 5610 5608 5605 5603 5601 5599 5598 5597 5596 5595 5594 5593 5590 5587 5583 5579 5574 5570 5566 5562 5559 5555 5552 5549 5546 5542 5538 5535
5635 5634 5632 5631 5630 5629 5627 5624 5624 5623 5621 5618 5616 5613 5611 5609 5607 5604 5602 5601 5599 5598 5596 5594 5593 5592 5591 5588 5585 5581 5577 5572 5567 5563 5559 5556 5552 5549 5546 5542 5538 5535 5532
5632 5631 5630 5629 5628 5628 5626 5625 5624 5623 5620 5617 5614 5612 5610 5608 5607 5605 5603 5601 5600 5598 5597 5595 5593 5591 5590 5587 5584 5580 5576 5571 5566 5561 5557 5553 5549 5545 5541 5537 5534 5530 5526
5629 5628 5627 5627 5627 5627 5626 5625 5624 5623 5620 5617 5614 5612 5610 5608 5607 5605 5603 5602 5601 5600 5598 5596 5594 5591 5589 5587 5583 5578 5573 5569 5563 5558 5554 5551 5547 5543 5539 5534 5530 5526 5522
5627 5626 5626 5626 5627 5626 5626 5625 5625 5623 5620 5617 5615 5613 5611 5609 5608 5606 5605 5604 5603 5602 5600 5597 5594 5592 5589 5586 5582 5577 5572 5567 5562 5557 5552 5547 5543 5539 5535 5530 5527 5522 5518